This demonstration page uses our WeatherBlox Daily Observations layout. Learn more.

Left ArrowRight Arrow

Hourly Observations for February 6, 2022

Temp ( °F °C ) Dew Point ( °F °C ) Humidity (%) Winds ( mph kmh ) Pressure ( in mb ) Visibility ( mi km ) Precip ( " mm )
12:15 am 00:15 Partly Cloudy 33 0.4 15 -9.3 49 49 NW 9 15 30.10 1019 10 16 0.00 0.00
12:35 am 00:35 Mostly Cloudy 32 0.1 15 -9.3 50 50 WNW 7 11 30.10 1019 10 16 0.00 0.00
12:55 am 00:55 Partly Cloudy 34 1.2 15 -9.2 46 46 WNW 8 13 30.09 1019 10 16 0.00 0.00
1:15 am 01:15 Clear 32 0.2 15 -9.5 49 49 WNW 7 11 30.10 1019 10 16 0.00 0.00
1:35 am 01:35 Clear 33 0.3 16 -9 50 50 NW 12 19 30.11 1020 10 16 0.00 0.00
1:55 am 01:55 Clear 33 0.3 16 -9 50 50 NNW 12 19 30.11 1020 10 16 0.00 0.00
2:15 am 02:15 Clear 33 0.5 17 -8.6 51 51 NW 10 17 30.13 1020 10 16 0.00 0.00
2:35 am 02:35 Clear 32 0 17 -8.5 53 53 NW 12 19 30.14 1020 10 16 0.00 0.00
2:55 am 02:55 Clear 32 0 18 -8 55 55 NW 9 15 30.15 1021 10 16 0.00 0.00
3:15 am 03:15 Clear 30 -1 18 -8 59 59 NW 9 15 30.16 1021 10 16 0.00 0.00
3:35 am 03:35 Clear 31 -0.8 19 -7 63 63 NW 9 15 30.17 1022 10 16 0.00 0.00
3:55 am 03:55 Clear 32 -0.2 20 -6.7 62 62 NW 10 17 30.18 1022 10 16 0.00 0.00
4:15 am 04:15 Clear 31 -0.4 20 -6.7 63 63 NW 9 15 30.19 1022 10 16 0.00 0.00
4:35 am 04:35 Clear 32 -0.2 20 -6.7 62 62 NW 9 15 30.19 1022 10 16 0.00 0.00
4:55 am 04:55 Clear 32 -0.2 20 -6.6 62 62 NNW 9 15 30.19 1022 10 16 0.00 0.00
5:15 am 05:15 Clear 31 -0.7 20 -6.7 64 64 NNW 10 17 30.20 1023 10 16 0.00 0.00
5:35 am 05:35 Clear 31 -0.6 21 -6.2 66 66 NNW 9 15 30.21 1023 10 16 0.00 0.00
5:55 am 05:55 Clear 30 -0.9 20 -6.5 66 66 NW 12 19 30.23 1024 10 16 0.00 0.00
6:15 am 06:15 Clear 30 -1 20 -6.4 67 67 NW 9 15 30.24 1024 10 16 0.00 0.00
6:35 am 06:35 Clear 30 -1 21 -6 69 69 NW 9 15 30.24 1024 10 16 0.00 0.00
6:55 am 06:55 Clear 30 -1 22 -5.4 72 72 NNW 10 17 30.25 1025 10 16 0.00 0.00
7:15 am 07:15 Clear 33 0.3 25 -4 73 73 NNW 13 20 30.25 1024 10 16 0.00 0.00
7:35 am 07:35 Clear 35 1.4 26 -3.2 72 72 NNW 13 20 30.25 1024 10 16 0.00 0.00
7:55 am 07:55 Sunny 34 1 26 -3.5 72 72 NNW 9 15 30.28 1025 10 16 0.00 0.00
8:15 am 08:15 Sunny 33 0.8 26 -3.5 73 73 NNW 9 15 30.29 1026 10 16 0.00 0.00
8:35 am 08:35 Sunny 35 1.5 26 -3.1 72 72 NNW 9 15 30.29 1026 10 16 0.00 0.00
8:55 am 08:55 Sunny 37 2.5 27 -3 67 67 NNW 13 20 30.29 1026 10 16 0.00 0.00
9:15 am 09:15 Sunny 38 3.1 27 -2.9 65 65 NNW 15 24 30.30 1026 10 16 0.00 0.00
9:35 am 09:35 Sunny 39 3.7 27 -3 62 62 N 22 35 30.29 1026 10 16 0.00 0.00
9:55 am 09:55 Partly Cloudy 40 4.3 24 -4.6 53 53 N 24 39 30.30 1026 10 16 0.00 0.00
10:15 am 10:15 Partly Cloudy 39 4 23 -4.8 53 53 NNW 26 43 30.32 1027 10 16 0.00 0.00
10:35 am 10:35 Mostly Cloudy 39 4.1 23 -4.8 53 53 N 24 39 30.34 1027 10 16 0.00 0.00
10:55 am 10:55 Partly Cloudy 39 4 23 -5.2 52 52 NNW 22 35 30.34 1027 10 16 0.00 0.00
11:15 am 11:15 Sunny 40 4.2 22 -5.5 50 50 N 25 41 30.35 1028 10 16 0.00 0.00
11:35 am 11:35 Sunny 41 5 21 -6 45 45 N 20 31 30.34 1027 10 16 0.00 0.00
11:55 am 11:55 Sunny 42 5.3 22 -5.3 47 47 N 18 30 30.34 1027 10 16 0.00 0.00
12:15 pm 12:15 Sunny 41 5.2 21 -5.9 45 45 NNW 24 39 30.34 1027 10 16 0.00 0.00
12:35 pm 12:35 Sunny 42 5.3 22 -5.7 45 45 N 22 35 30.34 1027 10 16 0.00 0.00
12:55 pm 12:55 Sunny 42 5.6 22 -5.8 44 44 N 20 31 30.32 1027 10 16 0.00 0.00
1:15 pm 13:15 Sunny 43 5.9 22 -5.8 43 43 N 17 28 30.32 1027 10 16 0.00 0.00
1:35 pm 13:35 Partly Cloudy 44 6.4 21 -6 41 41 N 15 24 30.31 1026 10 16 0.00 0.00
1:55 pm 13:55 Mostly Cloudy 44 6.4 22 -5.8 42 42 N 16 26 30.31 1026 10 16 0.00 0.00
2:15 pm 14:15 Partly Cloudy 43 6.3 21 -6.1 41 41 NNW 14 22 30.30 1026 10 16 0.00 0.00
2:35 pm 14:35 Sunny 44 6.8 22 -5.8 41 41 N 17 28 30.29 1026 10 16 0.00 0.00
2:55 pm 14:55 Sunny 44 6.8 21 -6.1 40 40 N 16 26 30.29 1026 10 16 0.00 0.00
3:15 pm 15:15 Sunny 45 7.1 21 -6.1 39 39 N 16 26 30.30 1026 10 16 0.00 0.00
3:35 pm 15:35 Sunny 45 7.1 20 -6.5 38 38 NNW 14 22 30.29 1026 10 16 0.00 0.00
3:55 pm 15:55 Sunny 45 7.1 20 -6.7 37 37 N 12 19 30.29 1026 10 16 0.00 0.00
4:15 pm 16:15 Sunny 45 7 19 -7 37 37 NNW 15 24 30.30 1026 10 16 0.00 0.00
4:35 pm 16:35 Sunny 45 7 19 -7.2 36 36 NNW 14 22 30.30 1026 10 16 0.00 0.00
4:55 pm 16:55 Sunny 45 7 19 -7.1 36 36 N 13 20 30.30 1026 10 16 0.00 0.00
5:15 pm 17:15 Sunny 44 6.7 19 -7.5 36 36 N 7 11 30.29 1026 10 16 0.00 0.00
5:35 pm 17:35 Sunny 43 6.1 18 -7.7 37 37 N 7 11 30.31 1026 10 16 0.00 0.00
5:55 pm 17:55 Sunny 41 5 17 -8.3 38 38 N 5 7 30.32 1027 10 16 0.00 0.00
6:15 pm 18:15 Clear 39 3.9 17 -8.4 41 41 N 3 6 30.33 1027 10 16 0.00 0.00
6:35 pm 18:35 Mostly Cloudy 35 1.6 17 -8.6 47 47 Calm 30.35 1028 10 16 0.00 0.00
6:55 pm 18:55 Mostly Cloudy 35 1.6 17 -8.6 47 47 Calm 30.35 1028 10 16 0.00 0.00
7:15 pm 19:15 Partly Cloudy 34 1 17 -8.5 50 50 Calm 30.37 1028 10 16 0.00 0.00
7:35 pm 19:35 Mostly Cloudy 31 -0.8 16 -9.1 54 54 Calm 30.39 1029 10 16 0.00 0.00
7:55 pm 19:55 Cloudy 30 -0.9 14 -9.9 51 51 Calm 30.39 1029 10 16 0.00 0.00
8:15 pm 20:15 Cloudy 29 -1.4 15 -9.4 55 55 Calm 30.41 1030 10 16 0.00 0.00
8:35 pm 20:35 Cloudy 29 -1.8 14 -10.2 53 53 Calm 30.41 1030 10 16 0.00 0.00
8:55 pm 20:55 Cloudy 31 -0.6 16 -8.7 55 55 SW 3 6 30.39 1029 10 16 0.00 0.00
9:15 pm 21:15 Cloudy 28 -2 15 -9.7 56 56 Calm 30.41 1030 10 16 0.00 0.00
9:35 pm 21:35 Cloudy 31 -0.8 16 -8.8 55 55 Calm 30.40 1030 10 16 0.00 0.00
9:55 pm 21:55 Cloudy 31 -0.5 16 -8.8 54 54 Calm 30.40 1029 10 16 0.00 0.00
10:15 pm 22:15 Cloudy 31 -0.3 17 -8.6 54 54 SW 5 7 30.41 1030 10 16 0.00 0.00
10:35 pm 22:35 Cloudy 33 0.5 17 -8.2 53 53 SW 3 6 30.39 1029 10 16 0.00 0.00
10:55 pm 22:55 Cloudy 33 0.8 18 -8 52 52 SW 3 6 30.39 1029 10 16 0.00 0.00
11:15 pm 23:15 Cloudy 33 0.6 17 -8.1 53 53 SW 5 7 30.39 1029 10 16 0.00 0.00
11:35 pm 23:35 Cloudy 34 1.3 18 -8 50 50 SW 6 9 30.37 1029 10 16 0.00 0.00
11:55 pm 23:55 Cloudy 34 1.2 18 -8 51 51 SW 7 11 30.36 1028 10 16 0.00 0.00

Powered by AerisWeather